When you browse on this site, cookies collect data to enhance your experience and personalize the content and advertising you see.
Visit our Privacy Policy to learn more. By continuing to use the site, you agree to this use of cookies and data.

Hourly Weather Gabú

Today, 6 August, Thursday

Time Temperature Precipitation Wind Pressure Humidity
00:00 +24°C° 0 mm 1 mps 755 mmHg 98%
01:00 +24°C° 0 mm 1 mps 754 mmHg 98%
02:00 +24°C° 0 mm 1 mps 754 mmHg 98%
03:00 +24°C° 0 mm 1 mps 754 mmHg 98%
04:00 +24°C° 0 mm 1 mps 754 mmHg 98%
05:00 +24°C° 0 mm 1 mps 754 mmHg 98%
06:00 +25°C° 0 mm 1 mps 755 mmHg 95%
07:00 +26°C° 0 mm 2 mps 755 mmHg 92%
08:00 +27°C° 0 mm 2 mps 755 mmHg 89%
09:00 +28°C° 0 mm 2 mps 755 mmHg 84%
10:00 +29°C° 0 mm 2 mps 755 mmHg 79%
11:00 +31°C° 0 mm 2 mps 755 mmHg 74%
12:00 +31°C° 1.1 mm 2 mps 754 mmHg 76%
13:00 +31°C° 1.1 mm 3 mps 754 mmHg 79%
14:00 +31°C° 1.1 mm 3 mps 753 mmHg 81%
15:00 +30°C° 2.2 mm 3 mps 753 mmHg 85%
16:00 +29°C° 2.2 mm 3 mps 753 mmHg 88%
17:00 +28°C° 2.2 mm 3 mps 753 mmHg 91%
18:00 +27°C° 1.3 mm 2 mps 754 mmHg 93%
19:00 +27°C° 1.3 mm 2 mps 754 mmHg 94%
20:00 +26°C° 1.3 mm 2 mps 755 mmHg 96%
21:00 +26°C° 0.5 mm 2 mps 755 mmHg 96%
22:00 +25°C° 0.5 mm 2 mps 755 mmHg 96%
23:00 +25°C° 0.5 mm 2 mps 756 mmHg 97%

Tomorrow, 7 August, Friday

Time Temperature Precipitation Wind Pressure Humidity
00:00 +25°C° 5 mm 2 mps 755 mmHg 97%
01:00 +25°C° 5 mm 2 mps 755 mmHg 97%
02:00 +25°C° 5 mm 2 mps 754 mmHg 98%
03:00 +25°C° 1.9 mm 2 mps 754 mmHg 98%
04:00 +25°C° 1.9 mm 2 mps 754 mmHg 98%
05:00 +25°C° 1.9 mm 2 mps 754 mmHg 98%
06:00 +25°C° 0.5 mm 2 mps 755 mmHg 97%
07:00 +26°C° 0.5 mm 2 mps 755 mmHg 96%
08:00 +26°C° 0.5 mm 2 mps 755 mmHg 96%
09:00 +27°C° 0.5 mm 2 mps 755 mmHg 93%
10:00 +28°C° 0.5 mm 2 mps 755 mmHg 90%
11:00 +29°C° 0.5 mm 2 mps 755 mmHg 87%
12:00 +29°C° 2.4 mm 2 mps 755 mmHg 87%
13:00 +29°C° 2.4 mm 2 mps 754 mmHg 87%
14:00 +30°C° 2.4 mm 2 mps 753 mmHg 87%
15:00 +29°C° 1.5 mm 3 mps 753 mmHg 89%
16:00 +29°C° 1.5 mm 3 mps 753 mmHg 90%
17:00 +28°C° 1.5 mm 3 mps 753 mmHg 92%
18:00 +27°C° 0.2 mm 3 mps 753 mmHg 93%
19:00 +26°C° 0.2 mm 3 mps 754 mmHg 94%
20:00 +26°C° 0.2 mm 3 mps 755 mmHg 96%
21:00 +25°C° 0.3 mm 3 mps 755 mmHg 96%
22:00 +25°C° 0.3 mm 3 mps 755 mmHg 96%
23:00 +25°C° 0.3 mm 2 mps 756 mmHg 97%

Day after tomorrow, 8 August, Saturday

Time Temperature Precipitation Wind Pressure Humidity
00:00 +25°C° 0 mm 3 mps 755 mmHg 97%
01:00 +25°C° 0 mm 3 mps 755 mmHg 97%
02:00 +25°C° 0 mm 3 mps 754 mmHg 97%
03:00 +25°C° 0 mm 2 mps 754 mmHg 96%
04:00 +25°C° 0 mm 2 mps 754 mmHg 96%
05:00 +25°C° 0 mm 2 mps 754 mmHg 96%
06:00 +26°C° 0 mm 2 mps 754 mmHg 95%
07:00 +26°C° 0 mm 3 mps 755 mmHg 93%
08:00 +27°C° 0 mm 3 mps 755 mmHg 92%
09:00 +28°C° 0.3 mm 3 mps 755 mmHg 88%
10:00 +29°C° 0.3 mm 2 mps 755 mmHg 84%
11:00 +31°C° 0.3 mm 2 mps 755 mmHg 80%
12:00 +30°C° 0.3 mm 2 mps 754 mmHg 84%
13:00 +29°C° 0.3 mm 2 mps 754 mmHg 87%
14:00 +28°C° 0.3 mm 2 mps 753 mmHg 91%
15:00 +28°C° 0.2 mm 2 mps 753 mmHg 92%
16:00 +27°C° 0.2 mm 2 mps 753 mmHg 93%
17:00 +27°C° 0.2 mm 2 mps 753 mmHg 94%
18:00 +27°C° 0.1 mm 2 mps 753 mmHg 94%
19:00 +26°C° 0.1 mm 2 mps 754 mmHg 94%
20:00 +26°C° 0.1 mm 3 mps 754 mmHg 95%
21:00 +26°C° 0 mm 2 mps 755 mmHg 96%
22:00 +25°C° 0 mm 2 mps 755 mmHg 96%
23:00 +25°C° 0 mm 2 mps 755 mmHg 97%

9 August, Sunday

Time Temperature Precipitation Wind Pressure Humidity
00:00 +25°C° 0 mm 2 mps 754 mmHg 98%
01:00 +25°C° 0 mm 2 mps 754 mmHg 98%
02:00 +25°C° 0 mm 1 mps 753 mmHg 98%
03:00 +25°C° 0 mm 2 mps 753 mmHg 98%
04:00 +25°C° 0 mm 2 mps 753 mmHg 98%
05:00 +24°C° 0 mm 2 mps 753 mmHg 98%
06:00 +25°C° 0 mm 2 mps 754 mmHg 95%
07:00 +26°C° 0 mm 3 mps 754 mmHg 92%
08:00 +27°C° 0 mm 3 mps 755 mmHg 89%
09:00 +28°C° 0.3 mm 3 mps 754 mmHg 85%
10:00 +30°C° 0.3 mm 3 mps 754 mmHg 81%
11:00 +31°C° 0.3 mm 3 mps 754 mmHg 77%
12:00 +31°C° 1.1 mm 3 mps 753 mmHg 78%
13:00 +31°C° 1.1 mm 3 mps 753 mmHg 79%
14:00 +31°C° 1.1 mm 3 mps 752 mmHg 80%
15:00 +30°C° 1.5 mm 3 mps 752 mmHg 84%
16:00 +29°C° 1.5 mm 3 mps 752 mmHg 88%
17:00 +28°C° 1.5 mm 2 mps 752 mmHg 92%
18:00 +27°C° 0.1 mm 2 mps 753 mmHg 93%
19:00 +26°C° 0.1 mm 2 mps 753 mmHg 95%
20:00 +26°C° 0.1 mm 2 mps 754 mmHg 96%
21:00 +26°C° 0 mm 2 mps 754 mmHg 96%
22:00 +26°C° 0 mm 2 mps 754 mmHg 96%
23:00 +25°C° 0 mm 2 mps 754 mmHg 96%

10 August, Monday

Time Temperature Precipitation Wind Pressure Humidity
00:00 +25°C° 0 mm 2 mps 754 mmHg 96%
01:00 +25°C° 0 mm 2 mps 753 mmHg 96%
02:00 +25°C° 0 mm 2 mps 753 mmHg 96%
03:00 +25°C° 0 mm 2 mps 753 mmHg 96%
04:00 +25°C° 0 mm 2 mps 753 mmHg 96%
05:00 +25°C° 0 mm 1 mps 753 mmHg 96%
06:00 +26°C° 0 mm 2 mps 753 mmHg 95%
07:00 +26°C° 0 mm 2 mps 753 mmHg 94%
08:00 +26°C° 0 mm 2 mps 754 mmHg 93%
09:00 +27°C° 0.1 mm 3 mps 754 mmHg 88%
10:00 +28°C° 0.1 mm 3 mps 753 mmHg 84%
11:00 +29°C° 0.1 mm 4 mps 753 mmHg 79%
12:00 +30°C° 0.1 mm 3 mps 753 mmHg 78%
13:00 +31°C° 0.1 mm 3 mps 752 mmHg 77%
14:00 +31°C° 0.1 mm 3 mps 752 mmHg 76%
15:00 +30°C° 1 mm 3 mps 751 mmHg 80%
16:00 +30°C° 1 mm 3 mps 751 mmHg 83%
17:00 +29°C° 1 mm 3 mps 751 mmHg 87%
18:00 +28°C° 0.1 mm 3 mps 752 mmHg 89%
19:00 +27°C° 0.1 mm 3 mps 752 mmHg 91%
20:00 +26°C° 0.1 mm 3 mps 753 mmHg 93%
21:00 +26°C° 0 mm 3 mps 753 mmHg 93%
22:00 +26°C° 0 mm 2 mps 754 mmHg 93%
23:00 +26°C° 0 mm 2 mps 754 mmHg 93%

11 August, Tuesday

Time Temperature Precipitation Wind Pressure Humidity
00:00 +26°C° 0 mm 2 mps 753 mmHg 93%
01:00 +26°C° 0 mm 2 mps 753 mmHg 93%
02:00 +26°C° 0 mm 2 mps 752 mmHg 93%
03:00 +26°C° 0 mm 3 mps 752 mmHg 94%
04:00 +25°C° 0 mm 3 mps 752 mmHg 94%
05:00 +25°C° 0 mm 3 mps 752 mmHg 95%
06:00 +26°C° 0 mm 3 mps 752 mmHg 93%
07:00 +26°C° 0 mm 3 mps 753 mmHg 91%
08:00 +27°C° 0 mm 3 mps 753 mmHg 89%
09:00 +28°C° 0.1 mm 3 mps 753 mmHg 86%
10:00 +29°C° 0.1 mm 3 mps 753 mmHg 83%
11:00 +30°C° 0.1 mm 3 mps 753 mmHg 79%
12:00 +30°C° 0.8 mm 3 mps 752 mmHg 80%
13:00 +30°C° 0.8 mm 3 mps 751 mmHg 80%
14:00 +31°C° 0.8 mm 3 mps 751 mmHg 80%
15:00 +30°C° 0.9 mm 3 mps 751 mmHg 83%
16:00 +29°C° 0.9 mm 3 mps 751 mmHg 86%
17:00 +29°C° 0.9 mm 3 mps 750 mmHg 89%
18:00 +28°C° 0.1 mm 3 mps 751 mmHg 92%
19:00 +27°C° 0.1 mm 3 mps 752 mmHg 94%
20:00 +26°C° 0.1 mm 2 mps 752 mmHg 96%
21:00 +26°C° 0.2 mm 2 mps 752 mmHg 96%
22:00 +26°C° 0.2 mm 2 mps 753 mmHg 96%
23:00 +26°C° 0.2 mm 2 mps 753 mmHg 97%
Show more